Location: Baia Mare
(47.6567°N, 23.5850°E)
Time: 15:42:24
(UTC+03:00)

ISS - Pass Details

Date: 19 May 2018
Orbit: 402 x 407 km, 51.6° (Epoch: 25 May)

Event Time Altitude Azimuth Distance (km) Brightness Sun altitude
Exits shadow 03:30:10 - 290° (WNW) 2,238 -0.2 -16.8°
Reaches altitude 10° 03:32:05 10° 296° (WNW) 1,458 -1.1 -16.6°
Maximum altitude 03:35:16 47° 12° (NNE) 542 -2.8 -16.3°
Drops below altitude 10° 03:38:26 10° 88° (E) 1,456 -0.6 -16.0°
Sets 03:40:34 0° 95° (E) 2,314 0.4 -15.8°
